Weather History for Plant City, FL

Change the Weather History Date:

Friday, November 30, 2012

  Actual Average Record
Temperature  
Mean Temperature 68 °F -  
Max Temperature 80 °F 76 °F 87 °F (1978)
Min Temperature 55 °F 53 °F 28 °F (1959)
Cooling Degree Days 2    
Growing Degree Days 18 (Base 50)    
Moisture  
Dew Point 54 °F    
Average Humidity 60    
Maximum Humidity 100    
Minimum Humidity 37    
Precipitation  
Precipitation 0.00 in - - ()
Sea Level Pressure  
Sea Level Pressure 30.24 in    
Wind  
Wind Speed 5 mph (ENE)    
Max Wind Speed 15 mph    
Max Gust Speed 22 mph    
Visibility 10 miles    
Events      
Averages and records for this station are not official NWS values.
T = Trace of Precipitation, MM = Missing Value Source: NWS Daily Summary

Daily Weather History Graph

Daily Weather History Graph

Search for Another Location

Airport:

Trip Planner

Search our weather history database for the weather conditions in past years. The results will help you decide how hot, cold, wet, or windy it might be!

Date:

Astronomy

Nov. 30, 2012 Rise Set
Actual Time 7:02 AM EST 5:32 PM EST
Civil Twilight 6:36 AM EST 5:58 PM EST
Nautical Twilight 6:07 AM EST 6:26 PM EST
Astronomical Twilight 5:39 AM EST 6:55 PM EST
Moon 7:25 PM EST (11/30) 8:33 AM EST (11/30)
Length of Visible Light 11h 21m
Length of Day
10h 30m
Waning Gibbous, 96% of the Moon is Illuminated
Nov 30
Waning Gibbous
Dec 6
Last Quarter
Dec 13
New
Dec 20
First Quarter
Dec 28
Full

Hourly Weather History & Observations

Time (EST) Temp. Dew Point Humidity Pressure Visibility Wind Dir Wind Speed Gust Speed Precip Events Conditions
12:15 AM 60.8 °F 53.6 °F 77% 30.27 in 10.0 mi NE 3.5 mph - N/A   Clear
12:35 AM 60.8 °F 53.6 °F 77% 30.27 in 10.0 mi ENE 4.6 mph - N/A   Clear
12:55 AM 60.8 °F 53.6 °F 77% 30.26 in 10.0 mi NE 5.8 mph - N/A   Scattered Clouds
1:15 AM 60.8 °F 53.6 °F 77% 30.26 in 10.0 mi NE 5.8 mph - N/A   Scattered Clouds
1:35 AM 59.0 °F 53.6 °F 82% 30.25 in 10.0 mi NNE 3.5 mph - N/A   Scattered Clouds
1:55 AM 59.0 °F 53.6 °F 82% 30.25 in 10.0 mi NNE 3.5 mph - N/A   Clear
2:15 AM 59.0 °F 53.6 °F 82% 30.25 in 10.0 mi NNE 3.5 mph - N/A   Clear
2:35 AM 57.2 °F 53.6 °F 88% 30.25 in 10.0 mi NNE 3.5 mph - N/A   Clear
2:55 AM 57.2 °F 55.4 °F 94% 30.25 in 10.0 mi NNE 3.5 mph - N/A   Clear
3:15 AM 57.2 °F 57.2 °F 100% 30.25 in 10.0 mi North 3.5 mph - N/A   Clear
3:35 AM 57.2 °F 57.2 °F 100% 30.25 in 10.0 mi NNE 3.5 mph - N/A   Clear
3:55 AM 57.2 °F - N/A% 30.25 in 10.0 mi NNE 4.6 mph - N/A   Clear
4:15 AM 57.2 °F - N/A% 30.25 in 10.0 mi NNE 3.5 mph - N/A   Clear
4:35 AM 57.2 °F - N/A% 30.25 in 10.0 mi NE 3.5 mph - N/A   Clear
4:55 AM 57.2 °F - N/A% 30.25 in 10.0 mi NNE 3.5 mph - N/A   Clear
5:15 AM 57.2 °F - N/A% 30.25 in 10.0 mi NNE 3.5 mph - N/A   Clear
5:35 AM 57.2 °F - N/A% 30.25 in 10.0 mi NNE 3.5 mph - N/A   Clear
5:55 AM 55.4 °F - N/A% 30.26 in 10.0 mi NE 4.6 mph - N/A   Clear
6:15 AM 55.4 °F - N/A% 30.26 in 10.0 mi NNE 3.5 mph - N/A   Clear
6:35 AM 55.4 °F - N/A% 30.26 in 10.0 mi NNE 4.6 mph - N/A   Clear
6:55 AM 55.4 °F - N/A% 30.27 in 10.0 mi NNE 3.5 mph - N/A   Clear
7:15 AM 55.4 °F - N/A% 30.27 in 7.0 mi NNE 4.6 mph - N/A   Clear
7:35 AM 57.2 °F - N/A% 30.28 in 7.0 mi Calm Calm - N/A   Clear
7:55 AM 57.2 °F - N/A% 30.28 in 7.0 mi NE 4.6 mph - N/A   Clear
8:15 AM 59.0 °F - N/A% 30.28 in 10.0 mi ENE 3.5 mph - N/A   Clear
8:35 AM 60.8 °F - N/A% 30.28 in 10.0 mi ENE 5.8 mph - N/A   Clear
8:55 AM 62.6 °F 60.8 °F 94% 30.29 in 10.0 mi ENE 6.9 mph - N/A   Clear
9:15 AM 66.2 °F 57.2 °F 73% 30.28 in 10.0 mi ENE 6.9 mph - N/A   Clear
9:35 AM 68.0 °F 57.2 °F 68% 30.29 in 10.0 mi ENE 6.9 mph - N/A   Clear
9:55 AM 71.6 °F 57.2 °F 60% 30.29 in 10.0 mi East 5.8 mph - N/A   Clear
10:15 AM 73.4 °F 55.4 °F 53% 30.29 in 10.0 mi East 6.9 mph - N/A   Clear
10:35 AM 75.2 °F 55.4 °F 50% 30.28 in 10.0 mi East 9.2 mph - N/A   Clear
10:55 AM 75.2 °F 53.6 °F 47% 30.27 in 10.0 mi East 15.0 mph 21.9 mph N/A   Clear
11:15 AM 77.0 °F 55.4 °F 47% 30.27 in 10.0 mi ESE 11.5 mph 16.1 mph N/A   Clear
11:35 AM 77.0 °F 53.6 °F 44% 30.26 in 10.0 mi East 11.5 mph 16.1 mph N/A   Clear
11:55 AM 77.0 °F 51.8 °F 41% 30.25 in 10.0 mi ESE 12.7 mph 19.6 mph N/A   Clear
12:15 PM 78.8 °F 51.8 °F 39% 30.25 in 10.0 mi ENE 12.7 mph - N/A   Clear
12:35 PM 77.0 °F 51.8 °F 41% 30.24 in 10.0 mi ENE 8.1 mph - N/A   Clear
12:55 PM 77.0 °F 51.8 °F 41% 30.22 in 10.0 mi East 10.4 mph - N/A   Clear
1:15 PM 78.8 °F 51.8 °F 39% 30.22 in 10.0 mi ESE 5.8 mph - N/A   Scattered Clouds
1:35 PM 78.8 °F 51.8 °F 39% 30.20 in 10.0 mi NE 12.7 mph 16.1 mph N/A   Scattered Clouds
1:55 PM 80.6 °F 51.8 °F 37% 30.20 in 10.0 mi ENE 8.1 mph - N/A   Scattered Clouds
2:15 PM 80.6 °F 51.8 °F 37% 30.19 in 10.0 mi NE 9.2 mph - N/A   Scattered Clouds
2:35 PM 78.8 °F 51.8 °F 39% 30.19 in 10.0 mi East 5.8 mph - N/A   Mostly Cloudy
2:55 PM 77.0 °F 51.8 °F 41% 30.19 in 10.0 mi East 4.6 mph - N/A   Scattered Clouds
3:15 PM 77.0 °F 51.8 °F 41% 30.19 in 10.0 mi East 9.2 mph - N/A   Clear
3:35 PM 75.2 °F 53.6 °F 47% 30.19 in 10.0 mi East 3.5 mph - N/A   Scattered Clouds
3:55 PM 77.0 °F 51.8 °F 41% 30.19 in 10.0 mi East 4.6 mph - N/A   Scattered Clouds
4:15 PM 75.2 °F 51.8 °F 44% 30.19 in 10.0 mi ESE 5.8 mph - N/A   Scattered Clouds
4:35 PM 75.2 °F 51.8 °F 44% 30.19 in 10.0 mi East 4.6 mph - N/A   Clear
4:55 PM 73.4 °F 53.6 °F 50% 30.20 in 10.0 mi East 3.5 mph - N/A   Clear
5:15 PM 73.4 °F 53.6 °F 50% 30.20 in 10.0 mi East 4.6 mph - N/A   Scattered Clouds
5:35 PM 71.6 °F 53.6 °F 53% 30.20 in 10.0 mi East 6.9 mph - N/A   Mostly Cloudy
5:55 PM 73.4 °F 53.6 °F 50% 30.21 in 10.0 mi East 4.6 mph - N/A   Overcast
6:15 PM 71.6 °F 53.6 °F 53% 30.21 in 10.0 mi East 6.9 mph - N/A   Overcast
6:35 PM 71.6 °F 53.6 °F 53% 30.22 in 10.0 mi ENE 5.8 mph - N/A   Overcast
6:55 PM 71.6 °F 53.6 °F 53% 30.22 in 10.0 mi East 5.8 mph - N/A   Overcast
7:15 PM 69.8 °F 53.6 °F 56% 30.22 in 10.0 mi East 5.8 mph - N/A   Mostly Cloudy
7:35 PM 69.8 °F 53.6 °F 56% 30.23 in 10.0 mi East 4.6 mph - N/A   Overcast
7:55 PM 69.8 °F 53.6 °F 56% 30.23 in 10.0 mi East 4.6 mph - N/A   Overcast
8:15 PM 69.8 °F 53.6 °F 56% 30.23 in 10.0 mi East 4.6 mph - N/A   Mostly Cloudy
8:35 PM 68.0 °F 53.6 °F 60% 30.23 in 10.0 mi East 6.9 mph - N/A   Scattered Clouds
8:55 PM 68.0 °F 53.6 °F 60% 30.23 in 10.0 mi East 5.8 mph - N/A   Clear
9:15 PM 66.2 °F 53.6 °F 64% 30.23 in 10.0 mi East 5.8 mph - N/A   Clear
9:35 PM 66.2 °F 53.6 °F 64% 30.23 in 10.0 mi ENE 3.5 mph - N/A   Clear
9:55 PM 66.2 °F 51.8 °F 60% 30.24 in 10.0 mi East 3.5 mph - N/A   Clear
10:15 PM 64.4 °F 51.8 °F 64% 30.24 in 10.0 mi Calm Calm - N/A   Clear
10:35 PM 62.6 °F 51.8 °F 68% 30.24 in 10.0 mi Calm Calm - N/A   Clear
10:55 PM 62.6 °F 51.8 °F 68% 30.24 in 10.0 mi Calm Calm - N/A   Clear
11:15 PM 59.0 °F 51.8 °F 77% 30.24 in 10.0 mi NE 3.5 mph - N/A   Clear
11:35 PM 59.0 °F 53.6 °F 82% 30.23 in 10.0 mi NE 3.5 mph - N/A   Clear
11:55 PM 59.0 °F 53.6 °F 82% 30.23 in 10.0 mi NE 3.5 mph - N/A   Clear